Weather Roundup
Issued by NWS Springfield, MO

Home | Current Version | Previous Version | Text Only | Print | Product List | Glossary On
Versions: 1 2 3 4 5 6 7 8 9 10 11 12 13 14 15 16 17 18 19 20 21 22 23 24 25 26 27 28 29 30 31 32 33 34 35 36 37 38 39 40 41 42 43 44 45 46 47 48 49 50
000
NZUS99 KSGF 260707
HRRSGF

HOURLY WEATHER
NATIONAL WEATHER SERVICE SPRINGFIELD MO
200 AM CDT TUE MAY 26 2015

......SGF CWA......

CITY           SKY/WX    TMP DP  RH WIND       PRES   REMARKS
SPRINGFIELD    LGT RAIN  65  59  81 SW15G25   29.80S
JOPLIN         CLOUDY    64  61  90 SW17G25   29.82R
WEST PLAINS    LGT RAIN  63  61  93 SE7       29.90F
ROLLA          LGT RAIN  67  63  87 SE12      29.86F
OSAGE BEACH    CLOUDY    70  64  83 SE12      29.80F
BRANSON        CLOUDY    63  59  88 SE5       29.85R

......SURROUNDING SGF CWA......

CITY           SKY/WX    TMP DP  RH WIND       PRES   REMARKS
CHANUTE        CLOUDY    64  57  78 NW6       29.81R
PARSONS        CLOUDY    64  61  90 CALM      29.83R
COFFEYVILLE    MOCLDY    61  60  97 NW6       29.80F
EMPORIA        LGT RAIN  60  59  96 NE6       29.84F
GROVE OK       CLOUDY    63  63 100 SW7       29.85S
ROGERS AR      CLOUDY    62  59  90 SW9       29.86R
SILOAM SPRINGS CLOUDY    61  54  77 S10       29.88R
HARRISON AR    CLOUDY    61  59  93 S7        29.86R
NEAR YELLVILLE CLOUDY    63  61  94 E8        29.80F

......KANSAS AND MISSOURI......

CITY           SKY/WX    TMP DP  RH WIND       PRES   REMARKS
KANSAS CTY INT DRIZZLE   61  60  97 NW7       29.83F
DOWNTOWN KC    LGT RAIN  63  60  90 NW3       29.81F
COLUMBIA       RAIN      70  66  87 S15G26    29.84F
SEDALIA        CLOUDY    71  66  84 E7        29.80F
ST JOSEPH      RAIN      62  61  96 S6        29.86R FOG
ST LOUIS       CLOUDY    74  66  76 SE12G20   29.90F
SPIRIT OF STL  CLOUDY    72  68  87 VRB6      29.88F
KIRKSVILLE     CLOUDY    70  66  87 S12       29.84F
WICHITA        LGT RAIN  60  58  92 NE3       29.85R
TOPEKA         RAIN      62  61  96 E9        29.85F FOG
OLATHE         CLOUDY    63  61  93 N6        29.81F

......TENNESSEE......

CITY           SKY/WX    TMP DP  RH WIND       PRES   REMARKS
MEMPHIS        CLOUDY    74  68  81 S12G22    29.95F
NASHVILLE      MOCLDY    66  64  93 S7        30.11S

......ARKANSAS.......

CITY           SKY/WX    TMP DP  RH WIND       PRES   REMARKS
FAYETTEVILLE   CLOUDY    61  59  93 S10       29.87R
FT SMITH       CLOUDY    63  59  87 SW6       29.87S
LITTLE ROCK    LGT RAIN  64  61  90 SE7       29.91F

......OKLAHOMA.......

CITY           SKY/WX    TMP DP  RH WIND       PRES   REMARKS
TULSA          CLOUDY    63  60  90 S7        29.84R
PONCA CITY     CLOUDY    60  59  96 N7        29.84R
MCALESTER      CLOUDY    62  60  93 S3        29.89S
OKLAHOMA CITY  PTCLDY    54  53  97 S7        29.85S

......IOWA............

CITY           SKY/WX    TMP DP  RH WIND       PRES   REMARKS
DES MOINES     CLOUDY    62  59  90 CALM      29.79F
QUAD CITIES    CLEAR     71  65  81 S10       29.86F

......ILLINOIS........

CITY           SKY/WX    TMP DP  RH WIND       PRES   REMARKS
QUINCY         CLOUDY    72  65  78 S9        29.87F
CHICAGO        PTCLDY    70  63  78 S12       29.93S



USA.gov is the U.S. government's official web portal to all federal, state and local government web resources and services.